Regional Weather Roundup
Issued by NWS

Home | Current Version | Previous Version | Graphics & Text | Print | Product List | Glossary On
Versions: 1 2 3 4 5 6 7 8 9 10 11 12 13 14 15 16 17 18 19 20 21 22 23 24 25 26 27 28 29 30 31 32 33 34 35 36 37 38 39 40 41 42 43 44 45 46 47 48 49 50
000
ASUS43 KDMX 011403
RWRIA

WEATHER ROUNDUP FOR IOWA
NATIONAL WEATHER SERVICE DES MOINES IA
900 AM CDT SUN MAY 01 2016

NOTE: "FAIR" INDICATES FEW OR NO CLOUDS BELOW 12,000 FEET WITH NO
SIGNIFICANT WEATHER AND/OR OBSTRUCTIONS TO VISIBILITY.

* - THESE STATIONS ARE NOT NWS STATIONS...THUS NOT UNDER NWS
QUALITY CONTROL.  THEY ALSO DO NOT REPORT WEATHER SUCH
AS PRECIPITATION OR FOG.

IAZ001>003-012>014-020>022-031>034-043>046-011500-
   NORTHWEST IOWA

CITY           SKY/WX    TMP DP  RH WIND       PRES   REMARKS
CARROLL *      PTSUNNY   43  43 100 NE16G23   30.04R FOG
CHEROKEE *     DRIZZLE   42  42 100 NE9       30.10R
DENISON *      LGT RAIN  43  41  93 NE14G22   30.02R
LE MARS *      LGT RAIN  43  41  93 NE13G22   30.12R
ORANGE CITY *  LGT RAIN  43  39  87 NE9G16    30.11R
SHELDON *      CLOUDY    41  39  93 N20       30.10R
SIOUX CITY     LGT RAIN  45  41  86 NE14      30.10R FOG
SPENCER        CLOUDY    42  37  82 N20       30.10R
STORM LAKE *   MIX PCPN  43  41  93 NE20G28   30.07R
$$

IAZ055>058-069>071-079>083-090>094-011500-
   SOUTHWEST IOWA

CITY           SKY/WX    TMP DP  RH WIND       PRES   REMARKS
ATLANTIC *     CLOUDY    45  43  93 NE10      30.01R
AUDUBON *      DRIZZLE   45  41  87 NE13G18   30.02R
CLARINDA *       N/A    N/A N/A N/A MISG        N/A
COUNCIL BLFS * CLOUDY    45  43  93 N10       30.01R
CRESTON *      LGT RAIN  45  45 100 NE15      29.98R
HARLAN  *      LGT RAIN  45  43  93 NE13      30.05R
LAMONI         CLOUDY    45  45 100 NE8       29.96R FOG
RED OAK *      CLOUDY    46  45  93 NE12      30.00R
SHENANDOAH *   CLOUDY    46  46 100 N12       30.00R
$$

IAZ047>049-059>061-072>074-084-011500-
   CENTRAL IOWA

CITY           SKY/WX    TMP DP  RH WIND       PRES   REMARKS
AMES           CLOUDY    44  42  93 NE14G21   30.02R
ANKENY *       CLOUDY    45  45 100 NE14      30.00R
BOONE *        CLOUDY    43  43 100 NE17      30.01R
CHARITON *     CLOUDY    45  45 100 NE9       29.97S FOG
DES MOINES     CLOUDY    46  43  89 E8        30.00R
GRINNELL*      CLOUDY    45  43  93 NE15      30.00R FOG
KNOXVILLE *    FOG       45  45 100 NE10      29.97S VSB 1
MARSHALLTOWN   CLOUDY    44  42  93 NE17      30.01R
NEWTON *       CLOUDY    45  45 100 NE12G20   30.00R FOG
PELLA *        CLOUDY    45  45  97 NE6       30.00S FOG
$$

IAZ004>006-015-016-023>025-035-036-011500-
   NORTH CENTRAL IOWA

CITY           SKY/WX    TMP DP  RH WIND       PRES   REMARKS
ALGONA *       CLOUDY    43  41  93 NE18G28   30.07S
CLARION *      CLOUDY    43  43 100 NE17G23   30.06R
ESTHERVILLE    CLOUDY    41  38  89 N16       30.11R
FORT DODGE *   CLOUDY    43  37  81 NE13G21   30.06R
MASON CITY     CLOUDY    45  40  82 NE16      30.08R
FOREST CITY *  CLOUDY    43  41  93 N15G21    30.07R
WEBSTER CITY * MIX PCPN  43  43 100 NE16G22   30.03R
IOWA FALLS *   CLOUDY    45  41  87 NE12G17   30.04S
$$

IAZ007>011-017>019-026>030-037>042-050>054-066-011500-
   NORTHEAST IOWA

CITY           SKY/WX    TMP DP  RH WIND       PRES   REMARKS
CEDAR RAPIDS   CLOUDY    45  44  97 NE17      29.98R
CHARLES CITY * CLOUDY    45  43  93 NE17G25   30.05S
CLINTON *      CLOUDY    45  44  97 NE14      30.00S FOG
DECORAH *      PTSUNNY   43  43 100 NE9G16    30.05S
DUBUQUE        CLOUDY    43  42  97 NE13      30.01S FOG
MONTICELLO *   CLOUDY    45  43  93 NE13G20   30.01R
OELWEIN *      CLOUDY    45  43  93 NE18      30.03R
WATERLOO       CLOUDY    45  40  82 NE12      30.03R
$$

IAZ064-065-067-068-078-011500-
   EAST CENTRAL IOWA

CITY           SKY/WX    TMP DP  RH WIND       PRES   REMARKS
DAVENPORT      CLOUDY    47  45  93 NE12      29.99R FOG
IOWA CITY      CLOUDY    47  45  93 NE13      30.00R
MT. PLEASANT * CLOUDY    50  50 100 NE8       29.97S FOG
MUSCATINE *    CLOUDY    48  46  93 NE13G18   29.98F FOG
QUAD CITIES    CLOUDY    49  45  86 NE10      29.97S FOG
$$

IAZ062-063-075>077-085>089-095>099-011500-
   SOUTHEAST IOWA

CITY           SKY/WX    TMP DP  RH WIND       PRES   REMARKS
BURLINGTON     CLOUDY    48  48 100 NE7       29.96R FOG
FAIRFIELD *    CLOUDY    46  46 100 NE8       29.98R FOG
FORT MADISON * CLOUDY    46  46 100 NE6       29.97R FOG
KEOKUK *       FOG       48  48 100 E6G13     29.95R VSB 1
OSKALOOSA *    CLOUDY    45  45 100 E10       29.99R FOG
OTTUMWA        CLOUDY    46  45  96 NE12      29.97R FOG
WASHINGTON *   CLOUDY    46  46 100 NE13      29.99R FOG
$$

ABBREVIATIONS USED IN REMARKS
   TC - TEMPERATURES IN CELSIUS
  WCI - WIND CHILL INDEX
   HX - HEAT INDEX
  VSB - VISIBILITY
$$





USA.gov is the U.S. government's official web portal to all federal, state and local government web resources and services.